Norfolk, NE

1:40 AM CST on December 16, 2019 (GMT -0600)
Stefan Memorial

Weather History for KOFK - October, 2019

Change the Weather History Date:

Thursday, October 10, 2019

  Actual Average Record
Temperature  
Mean Temperature 42 °F 53 °F  
Max Temperature 50 °F 66 °F 94 °F (1928)
Min Temperature 34 °F 41 °F 17 °F (1906)
Degree Days  
Heating Degree Days 23 12  
Month to date heating degree days 126 105  
Since 1 July heating degree days 156 247  
Cooling Degree Days 0 0  
Month to date cooling degree days 0 8  
Year to date cooling degree days 949 914  
Moisture  
Dew Point 38 °F    
Average Humidity 84    
Maximum Humidity 93    
Minimum Humidity 75    
Precipitation  
Precipitation 0.10 in 0.07 in 1.02 in (1901)
Month to date precipitation 1.66 0.79  
Year to date precipitation 23.69 24.01  
Snow  
Snow T in 0.00 in - ()
Month to date snowfall T 0.1  
Since 1 July snowfall T 0.1  
Since 1 September snowfall T 0.1  
Snow Depth 0.00 in    
Sea Level Pressure  
Sea Level Pressure 29.90 in    
Wind  
Wind Speed 20 mph (NNW)    
Max Wind Speed 31 mph    
Max Gust Speed 43 mph    
Visibility 6 miles    
Events Rain , Thunderstorm    
T = Trace of Precipitation, MM = Missing Value Source: NWS Daily Summary

Daily Weather History Graph

Daily Weather History Graph

Search for Another Location

Airport or City:

Astronomy

Oct. 10, 2019 Rise Set
Actual Time 7:36 AM CDT 6:56 PM CDT
Civil Twilight 7:08 AM CDT 7:24 PM CDT
Nautical Twilight 6:36 AM CDT 7:56 PM CDT
Astronomical Twilight 6:03 AM CDT 8:29 PM CDT
Moon 6:02 PM CDT (10/10) 4:16 AM CDT (10/10)
Length of Visible Light 12h 16m
Length of Day
11h 20m
Waxing Gibbous, 91% of the Moon is Illuminated
Oct 10
Waxing Gibbous
Oct 13
Full
Oct 21
Last Quarter
Oct 27
New
Nov 4
First Quarter

Hourly Weather History & Observations

Time (CDT) Temp. Windchill Dew Point Humidity Pressure Visibility Wind Dir Wind Speed Gust Speed Precip Events Conditions
12:56 AM 50.0 °F - 48.0 °F 93% 29.85 in 10.0 mi NNW 12.7 mph - 0.01 in   Overcast
1:56 AM 48.9 °F - 48.0 °F 97% 29.82 in 4.0 mi North 9.2 mph - 0.00 in Rain Light Rain
2:08 AM 48.9 °F - 46.9 °F 93% 29.81 in 3.0 mi NNE 11.5 mph - 0.00 in Rain , Thunderstorm Light Rain
2:23 AM 48.9 °F - 48.0 °F 97% 29.79 in 3.0 mi NNE 10.4 mph - 0.01 in Rain Rain
2:41 AM 50.0 °F - 48.0 °F 93% 29.81 in 4.0 mi Variable 5.8 mph - 0.05 in Rain , Thunderstorm Light Rain
2:56 AM 50.0 °F - 48.0 °F 93% 29.79 in 5.0 mi NNW 13.8 mph - 0.05 in Rain Light Rain
3:56 AM 50.0 °F - 48.0 °F 93% 29.81 in 3.0 mi NNW 10.4 mph - 0.00 in   Overcast
4:03 AM 50.0 °F - 48.0 °F 93% 29.81 in 2.5 mi North 11.5 mph - 0.00 in Rain Light Rain
4:15 AM 50.0 °F - 48.0 °F 93% 29.82 in 4.0 mi NNE 9.2 mph - 0.00 in Rain Light Rain
4:56 AM 50.0 °F - 48.0 °F 93% 29.79 in 10.0 mi North 10.4 mph - 0.01 in   Overcast
6:34 AM 45.0 °F 37.4 °F 42.1 °F 90% 29.83 in 10.0 mi NNW 18.4 mph 28.8 mph N/A   Overcast
6:56 AM 44.1 °F 36.5 °F 41.0 °F 89% 29.86 in 6.0 mi NNW 17.3 mph 26.5 mph 0.00 in Rain Light Rain
7:56 AM 41.0 °F 31.1 °F 39.0 °F 93% 29.84 in 6.0 mi NNW 23.0 mph 33.4 mph 0.01 in Rain Light Rain
8:56 AM 39.9 °F 30.8 °F 37.9 °F 93% 29.87 in 2.5 mi NNW 18.4 mph 31.1 mph 0.00 in Rain Light Rain
9:39 AM 39.9 °F 30.0 °F 37.0 °F 89% 29.87 in 1.5 mi NW 21.9 mph 28.8 mph 0.01 in Rain Light Rain
9:56 AM 39.0 °F 28.3 °F 37.0 °F 93% 29.88 in 2.0 mi NW 24.2 mph 33.4 mph 0.01 in Rain Light Rain
10:06 AM 39.0 °F 28.8 °F 37.0 °F 93% 29.87 in 2.5 mi NW 21.9 mph 32.2 mph 0.00 in Rain Light Rain
10:56 AM 39.0 °F 28.8 °F 36.0 °F 89% 29.91 in 5.0 mi NW 21.9 mph 39.1 mph 0.00 in Rain Light Rain
11:16 AM 39.0 °F 28.8 °F 36.0 °F 89% 29.88 in 2.0 mi NNW 21.9 mph 31.1 mph 0.00 in   Overcast
11:23 AM 39.0 °F 28.8 °F 36.0 °F 89% 29.88 in 1.5 mi NNW 21.9 mph 31.1 mph 0.01 in   Overcast
11:34 AM 37.9 °F 26.3 °F 36.0 °F 93% 29.88 in 3.0 mi NNW 26.5 mph 35.7 mph 0.01 in Rain Light Rain
11:44 AM 39.2 °F 30.2 °F 35.6 °F 87% 29.88 in 6.0 mi NW 17.3 mph 28.8 mph N/A   Overcast
11:51 AM 37.4 °F 26.1 °F 35.6 °F 93% 29.88 in 5.0 mi NW 24.2 mph 33.4 mph 0.01 in Rain Light Rain
11:56 AM 37.9 °F 26.8 °F 36.0 °F 93% 29.91 in 6.0 mi NNW 24.2 mph 33.4 mph 0.01 in Rain Light Rain
12:06 PM 37.4 °F 26.6 °F 35.6 °F 93% 29.88 in 8.0 mi NW 21.9 mph 33.4 mph N/A   Overcast
12:56 PM 37.0 °F 25.9 °F 34.0 °F 89% 29.91 in 6.0 mi NW 23.0 mph 33.4 mph 0.00 in   Overcast
1:11 PM 37.0 °F 26.2 °F 35.1 °F 93% 29.88 in 4.0 mi NW 21.9 mph 28.8 mph 0.01 in Rain Light Rain
1:56 PM 37.0 °F 26.2 °F 34.0 °F 89% 29.90 in 4.0 mi NW 21.9 mph 32.2 mph 0.01 in   Overcast
2:56 PM 36.0 °F 23.9 °F 33.1 °F 89% 29.91 in 8.0 mi NW 25.3 mph 42.6 mph 0.00 in   Overcast
3:03 PM 36.0 °F 24.7 °F 33.1 °F 89% 29.88 in 10.0 mi NW 21.9 mph 38.0 mph 0.00 in Rain Light Rain
3:17 PM 36.0 °F 25.0 °F 33.1 °F 89% 29.89 in 9.0 mi NW 20.7 mph 34.5 mph 0.00 in Rain Light Rain
3:56 PM 36.0 °F 23.9 °F 32.0 °F 86% 29.93 in 10.0 mi NW 25.3 mph 38.0 mph 0.00 in Rain Light Rain
4:56 PM 36.0 °F 25.0 °F 33.1 °F 89% 29.95 in 10.0 mi NW 20.7 mph 32.2 mph 0.00 in   Overcast
5:39 PM 36.0 °F 23.9 °F 32.0 °F 86% 29.94 in 10.0 mi NW 25.3 mph 36.8 mph N/A   Overcast
5:56 PM 36.0 °F 23.0 °F 30.9 °F 82% 29.97 in 10.0 mi NNW 29.9 mph 42.6 mph N/A   Overcast
6:56 PM 36.0 °F 25.0 °F 30.9 °F 82% 29.99 in 10.0 mi NW 20.7 mph 32.2 mph N/A   Overcast
7:56 PM 35.1 °F 24.1 °F 30.9 °F 85% 30.02 in 10.0 mi NW 19.6 mph 32.2 mph 0.00 in   Overcast
8:56 PM 35.1 °F 24.1 °F 30.0 °F 82% 30.04 in 10.0 mi NW 19.6 mph 32.2 mph N/A   Overcast
9:56 PM 35.1 °F 24.8 °F 28.9 °F 78% 30.06 in 10.0 mi WNW 17.3 mph 33.4 mph N/A   Overcast
10:56 PM 35.1 °F 24.5 °F 28.9 °F 78% 30.07 in 10.0 mi NW 18.4 mph 27.6 mph 0.00 in   Overcast
11:56 PM 34.0 °F 22.1 °F 28.0 °F 79% 30.09 in 10.0 mi WNW 21.9 mph 32.2 mph 0.00 in   Overcast